Weather History for KPNE - November, 2013

Change the Weather History Date:

Saturday, November 16, 2013

  Actual Average Record
Temperature  
Mean Temperature 51 °F -  
Max Temperature 57 °F 52 °F 75 °F (2005)
Min Temperature 45 °F 34 °F 21 °F (1996)
Degree Days  
Heating Degree Days 14    
Growing Degree Days 1 (Base 50)    
Moisture  
Dew Point 44 °F    
Average Humidity 79    
Maximum Humidity 90    
Minimum Humidity 61    
Precipitation  
Precipitation 0.01 in - - ()
Sea Level Pressure  
Sea Level Pressure 30.31 in    
Wind  
Wind Speed 2 mph (SE)    
Max Wind Speed 6 mph    
Max Gust Speed -    
Visibility 9 miles    
Events Rain    
Averages and records for this station are not official NWS values.
T = Trace of Precipitation, MM = Missing Value Source: NWS Daily Summary

Daily Weather History Graph

Daily Weather History Graph

Search for Another Location

Airport or City:

Trip Planner

Search our weather history database for the weather conditions in past years. The results will help you decide how hot, cold, wet, or windy it might be!

Date:

Astronomy

Nov. 16, 2013 Rise Set
Actual Time 6:46 AM EST 4:42 PM EST
Civil Twilight 6:17 AM EST 5:11 PM EST
Nautical Twilight 5:44 AM EST 5:44 PM EST
Astronomical Twilight 5:12 AM EST 6:16 PM EST
Moon 4:16 PM EST (11/16) 5:40 AM EST (11/16)
Length of Visible Light 10h 54m
Length of Day
9h 55m
Waxing Gibbous, 99% of the Moon is Illuminated
Nov 16
Waxing Gibbous
Nov 17
Full
Nov 25
Last Quarter
Dec 2
New
Dec 9
First Quarter

Hourly Weather History & Observations

Time (EST) Temp. Windchill Dew Point Humidity Pressure Visibility Wind Dir Wind Speed Gust Speed Precip Events Conditions
12:54 AM 46.9 °F - 34.0 °F 61% 30.27 in 10.0 mi WNW 3.5 mph - 0.00 in Rain Light Rain
1:54 AM 46.0 °F - 37.0 °F 71% 30.29 in 10.0 mi Calm Calm - 0.00 in Rain Light Rain
2:54 AM 46.0 °F - 37.9 °F 73% 30.29 in 10.0 mi Calm Calm - 0.00 in Rain Light Rain
3:54 AM 45.0 °F - 39.9 °F 82% 30.28 in 9.0 mi Calm Calm - 0.00 in Rain Light Rain
4:54 AM 46.0 °F - 41.0 °F 83% 30.29 in 7.0 mi Calm Calm - 0.00 in Rain Light Rain
5:54 AM 45.0 °F - 42.1 °F 90% 30.30 in 7.0 mi Calm Calm - 0.01 in Rain Light Rain
6:54 AM 46.0 °F 43.9 °F 42.1 °F 86% 30.32 in 6.0 mi NE 4.6 mph - 0.00 in   Overcast
7:54 AM 46.9 °F - 43.0 °F 86% 30.33 in 5.0 mi SE 4.6 mph - N/A   Overcast
8:54 AM 48.0 °F - 41.0 °F 77% 30.35 in 8.0 mi Calm Calm - N/A   Mostly Cloudy
9:54 AM 53.1 °F - 44.1 °F 71% 30.37 in 8.0 mi Calm Calm - N/A   Overcast
10:54 AM 55.0 °F - 45.0 °F 69% 30.35 in 10.0 mi Variable 5.8 mph - N/A   Unknown
11:54 AM 57.0 °F - 45.0 °F 64% 30.32 in 10.0 mi SE 4.6 mph - N/A   Clear
12:54 PM 57.9 °F - 45.0 °F 62% 30.31 in 10.0 mi Variable 3.5 mph - N/A   Clear
1:54 PM 57.9 °F - 45.0 °F 62% 30.31 in 10.0 mi SSW 4.6 mph - N/A   Mostly Cloudy
2:54 PM 57.0 °F - 46.0 °F 67% 30.31 in 10.0 mi ESE 5.8 mph - N/A   Partly Cloudy
3:54 PM 54.0 °F - 48.0 °F 80% 30.30 in 10.0 mi SSE 5.8 mph - N/A   Mostly Cloudy
4:54 PM 51.1 °F - 46.9 °F 86% 30.32 in 10.0 mi SE 5.8 mph - N/A   Partly Cloudy
5:08 PM 51.8 °F - 48.2 °F 88% 30.31 in 10.0 mi SSE 3.5 mph - N/A   Mostly Cloudy
5:27 PM 51.8 °F - 48.2 °F 88% 30.32 in 10.0 mi South 4.6 mph - N/A   Overcast
5:47 PM 51.8 °F - 48.2 °F 88% 30.32 in 9.0 mi South 3.5 mph - N/A   Overcast
5:54 PM 52.0 °F - 48.0 °F 86% 30.32 in 9.0 mi Calm Calm - N/A   Overcast
6:54 PM 52.0 °F - 48.0 °F 86% 30.32 in 9.0 mi Calm Calm - N/A   Overcast
7:54 PM 52.0 °F - 48.0 °F 86% 30.31 in 9.0 mi Calm Calm - N/A   Overcast
8:54 PM 52.0 °F - 46.9 °F 83% 30.31 in 10.0 mi Calm Calm - N/A   Overcast
9:54 PM 52.0 °F - 46.9 °F 83% 30.30 in 10.0 mi Calm Calm - N/A   Overcast
10:54 PM 52.0 °F - 46.9 °F 83% 30.29 in 9.0 mi Calm Calm - N/A   Overcast
11:54 PM 52.0 °F - 48.0 °F 86% 30.27 in 8.0 mi East 4.6 mph - N/A   Overcast